This is the latest recevied weather packets stored in our database for station/object KC7UNY-13. If no packets are shown the sender has not sent any weather packets the latest 10 day(s).
| Time | Temp. | Humidity | Pressure | Rain* | Wind** | Luminosity | Snow |
|---|---|---|---|---|---|---|---|
| 1777128651 | 22.78° C | 30% | 1010.1 hPa | 0 mm | - | 187 W/m² | - |
| 1777128350 | 22.78° C | 31% | 1010.1 hPa | 0 mm | - | 175 W/m² | - |
| 1777128046 | 21.67° C | 31% | 1010 hPa | 0 mm | - | 198 W/m² | - |
| 1777127744 | 21.67° C | 32% | 1009.9 hPa | 0 mm | - | 146 W/m² | - |
| 1777127441 | 21.67° C | 32% | 1010.1 hPa | 0 mm | - | 120 W/m² | - |
| 1777127136 | 21.11° C | 32% | 1009.9 hPa | 0 mm | - | 152 W/m² | - |
| 1777126832 | 21.11° C | 32% | 1009.8 hPa | 0 mm | - | 158 W/m² | - |
| 1777126529 | 20.56° C | 34% | 1009.9 hPa | 0 mm | - | 132 W/m² | - |
| 1777126224 | 20° C | 34% | 1009.8 hPa | 0 mm | - | 120 W/m² | - |
| 1777125920 | 19.44° C | 35% | 1009.8 hPa | 0 mm | - | 94 W/m² | - |
| 1777125617 | 19.44° C | 35% | 1009.8 hPa | 0 mm | - | 91 W/m² | - |
| 1777125314 | 19.44° C | 35% | 1009.7 hPa | 0 mm | - | 91 W/m² | - |
| 1777125008 | 18.89° C | 35% | 1009.5 hPa | 0 mm | - | 80 W/m² | - |
| 1777124705 | 18.33° C | 37% | 1009.4 hPa | 0 mm | - | 66 W/m² | - |
| 1777124405 | 17.78° C | 37% | 1009.4 hPa | 0 mm | - | 60 W/m² | - |
| 1777124102 | 17.78° C | 39% | 1009.2 hPa | 0 mm | - | 52 W/m² | - |
| 1777123799 | 17.22° C | 38% | 1009.1 hPa | 0 mm | - | 41 W/m² | - |
| 1777123496 | 16.67° C | 39% | 1009 hPa | 0 mm | - | 31 W/m² | - |
| 1777123196 | 16.67° C | 39% | 1009.1 hPa | 0 mm | - | 27 W/m² | - |
| 1777122887 | 16.67° C | 39% | 1009 hPa | 0 mm | - | 21 W/m² | - |
| 1777122584 | 16.67° C | 39% | 1008.8 hPa | 0 mm | - | 16 W/m² | - |
| 1777122279 | 16.67° C | 39% | 1008.8 hPa | 0 mm | - | 12 W/m² | - |
| 1777121976 | 16.67° C | 40% | 1008.6 hPa | 0 mm | - | 9 W/m² | - |
| 1777121672 | 16.67° C | 40% | 1008.9 hPa | 0 mm | - | 6 W/m² | - |
| 1777121369 | 16.67° C | 40% | 1008.7 hPa | 0 mm | - | 3 W/m² | - |
* Rain latest hour (hover to see other rain measurements)
** Current wind speed in m/s (hover to see current wind gust speed)